This demonstration page uses our WeatherBlox Daily Observations layout. Learn more.

Left ArrowRight Arrow

Hourly Observations for May 25, 2020

Temp ( °F °C ) Dew Point ( °F °C ) Humidity (%) Winds ( mph kmh ) Pressure ( in mb ) Visibility ( mi km ) Precip ( " mm )
12:15 am 00:15 Cloudy with Rain 60 15.5 58 14.6 94 94 NE 13 20 29.82 1010 7 11.26538 0.05 1.27
12:35 am 00:35 Cloudy with Rain 60 15.5 58 14.6 94 94 NE 16 26 29.84 1010 7 11.26538 0.11 2.794
12:55 am 00:55 Cloudy with Nearby Thunderstorms 60 15.5 58 14.5 94 94 NE 17 28 29.85 1011 5 8.0467 0.19 4.826
1:15 am 01:15 Cloudy with Rain 59 15.1 58 14.2 94 94 NE 18 30 29.86 1011 5 8.0467 0.08 2.032
1:35 am 01:35 Cloudy with Light Rain 59 14.8 57 14 95 95 ENE 20 31 29.86 1011 5 8.0467 0.16 4.064
1:55 am 01:55 Cloudy with Light Rain 58 14.5 57 13.7 95 95 ENE 22 35 29.87 1012 10 16.0934 0.2 5.08
2:15 am 02:15 Cloudy with Rain 58 14.5 56 13.6 94 94 NE 15 24 29.88 1012 10 16.0934 0.02 0.508
2:35 am 02:35 Cloudy with Rain 58 14.5 57 13.7 95 95 NE 16 26 29.88 1012 7 11.26538 0.08 2.032
2:55 am 02:55 Cloudy with Heavy Rain 58 14.5 57 13.9 96 96 NE 15 24 29.88 1012 5 8.0467 0.14 3.556
3:15 am 03:15 Cloudy with Rain 58 14.3 57 13.7 96 96 NNE 17 28 29.89 1012 4 6.43736 0.09 2.286
3:35 am 03:35 Cloudy with Rain 58 14.2 56 13.6 96 96 NNE 20 31 29.88 1012 7 11.26538 0.15 3.81
3:55 am 03:55 Cloudy with Rain 58 14.3 57 13.7 96 96 NNE 18 30 29.88 1012 7 11.26538 0.18 4.572
4:15 am 04:15 Cloudy with Rain 56 13.5 55 12.7 95 95 N 22 35 29.88 1012 5 8.0467 0.04 1.016
4:35 am 04:35 Cloudy with Light Rain 56 13.2 55 12.5 96 96 NNE 25 41 29.89 1012 7 11.26538 0.07 1.778
4:55 am 04:55 Cloudy with Rain 54 12.3 53 11.5 95 95 N 18 30 29.91 1013 7 11.26538 0.1 2.54
5:15 am 05:15 Cloudy with Rain 54 12 52 11.1 94 94 N 20 31 29.92 1013 5 8.0467 0.04 1.016
5:35 am 05:35 Cloudy with Light Rain 54 12 52 11 94 94 N 20 31 29.92 1013 10 16.0934 0.06 1.524
5:55 am 05:55 Cloudy with Rain 53 11.8 52 11 95 95 N 15 24 29.91 1013 7 11.26538 0.09 2.286
6:15 am 06:15 Cloudy with Light Rain 53 11.5 51 10.7 95 95 N 18 30 29.92 1013 7 11.26538 0.02 0.508
6:35 am 06:35 Cloudy with Rain 53 11.5 51 10.7 95 95 N 17 28 29.92 1013 7 11.26538 0.05 1.27
6:55 am 06:55 Cloudy with Rain 53 11.5 51 10.6 94 94 N 20 31 29.93 1014 7 11.26538 0.07 1.778
7:15 am 07:15 Cloudy with Light Rain 53 11.4 51 10.5 94 94 N 14 22 29.94 1014 7 11.26538 0.01 0.254
7:35 am 07:35 Cloudy with Light Rain 53 11.4 51 10.5 94 94 N 16 26 29.93 1014 7 11.26538 0.02 0.508
7:55 am 07:55 Cloudy with Light Rain 53 11.4 51 10.7 96 96 N 22 35 29.92 1013 10 16.0934 0.02 0.508
8:15 am 08:15 Cloudy with Light Rain 53 11.5 51 10.6 94 94 N 17 28 29.92 1013 10 16.0934 0.01 0.254
8:35 am 08:35 Cloudy 53 11.5 51 10.5 94 94 N 15 24 29.92 1013 10 16.0934 0.01 0.254
8:55 am 08:55 Cloudy 53 11.7 51 10.5 92 92 N 20 31 29.93 1013 10 16.0934 0.01 0.254
9:15 am 09:15 Cloudy 53 11.8 51 10.3 91 91 N 18 30 29.94 1014 10 16.0934 0 0
9:35 am 09:35 Cloudy 54 12 51 10.5 91 91 N 21 33 29.95 1014 10 16.0934 0 0
9:55 am 09:55 Cloudy 54 12.3 51 10.5 89 89 N 16 26 29.95 1014 10 16.0934 0 0
10:15 am 10:15 Cloudy 55 12.5 51 10.6 88 88 N 15 24 29.96 1015 10 16.0934 0 0
10:35 am 10:35 Cloudy 54 12.2 51 10.5 89 89 N 17 28 29.97 1015 7 11.26538 0 0
10:55 am 10:55 Cloudy with Drizzle 54 12 51 10.7 92 92 N 15 24 29.98 1015 4 6.43736 0.01 0.254
11:15 am 11:15 Cloudy with Rain 54 12 52 11 94 94 N 14 22 29.99 1015 3 4.82802 0.01 0.254
11:35 am 11:35 Cloudy with Light Rain 54 12.2 52 11.3 94 94 N 17 28 29.98 1015 3 4.82802 0.03 0.762
11:55 am 11:55 Cloudy with Light Rain 54 12.3 53 11.4 94 94 N 21 33 29.98 1015 3 4.82802 0.06 1.524
12:15 pm 12:15 Cloudy with Light Rain 54 12.4 53 11.5 94 94 N 16 26 29.98 1015 4 6.43736 0.01 0.254
12:35 pm 12:35 Cloudy with Mist and Fog 54 12.2 52 11.1 93 93 N 16 26 29.98 1015 5 8.0467 0.01 0.254
12:55 pm 12:55 Cloudy with Rain 54 12.1 52 10.9 92 92 N 20 31 29.98 1015 5 8.0467 0.02 0.508
1:15 pm 13:15 Cloudy with Rain 54 12.1 52 11.1 94 94 NNW 18 30 29.98 1015 3 4.82802 0.04 1.016
1:35 pm 13:35 Cloudy with Light Rain 54 12.1 52 11.2 94 94 NNW 17 28 29.98 1015 4 6.43736 0.07 1.778
1:55 pm 13:55 Cloudy with Light Rain 54 12.1 52 11.1 94 94 NNW 20 31 29.98 1015 5 8.0467 0.08 2.032
2:15 pm 14:15 Cloudy with Light Rain 54 12.1 52 11.1 94 94 NNW 17 28 29.98 1015 5 8.0467 0.01 0.254
2:35 pm 14:35 Cloudy with Rain 54 12.2 52 11.3 94 94 NNW 15 24 29.97 1015 3 4.82802 0.06 1.524
2:55 pm 14:55 Cloudy with Light Rain 55 12.6 53 11.6 94 94 NNW 16 26 29.97 1015 5 8.0467 0.1 2.54
3:15 pm 15:15 Cloudy with Light Rain 55 12.7 53 11.5 92 92 N 16 26 29.97 1015 10 16.0934 0.01 0.254
3:35 pm 15:35 Cloudy with Rain 55 13 53 11.6 91 91 NNW 15 24 29.96 1014 7 11.26538 0.02 0.508
3:55 pm 15:55 Cloudy with Light Rain 56 13.1 53 11.8 92 92 N 16 26 29.97 1015 7 11.26538 0.04 1.016
4:15 pm 16:15 Cloudy with Drizzle 56 13.4 53 11.8 90 90 NNW 15 24 29.95 1014 10 16.0934 0.01 0.254
4:35 pm 16:35 Cloudy with Light Rain 56 13.6 54 12 90 90 NNW 14 22 29.95 1014 10 16.0934 0.01 0.254
4:55 pm 16:55 Cloudy with Rain 57 14 54 12.2 89 89 N 13 20 29.95 1014 10 16.0934 0.01 0.254
5:15 pm 17:15 Cloudy with Light Rain 58 14.3 54 12.1 87 87 NNW 13 20 29.95 1014 10 16.0934 0.01 0.254
5:35 pm 17:35 Cloudy with Light Rain 58 14.6 53 11.8 83 83 N 13 20 29.93 1014 10 16.0934 0.01 0.254
5:55 pm 17:55 Cloudy 59 15.2 54 12.3 83 83 N 15 24 29.93 1013 10 16.0934 0.01 0.254
6:15 pm 18:15 Cloudy 60 15.3 53 11.6 79 79 N 13 20 29.93 1013 10 16.0934 0 0
6:35 pm 18:35 Cloudy 60 15.5 53 11.7 78 78 NNW 12 19 29.93 1013 10 16.0934 0 0
6:55 pm 18:55 Cloudy 60 15.5 53 11.7 78 78 NNW 13 20 29.93 1013 10 16.0934 0 0
7:15 pm 19:15 Cloudy 60 15.5 52 11.2 76 76 N 12 19 29.92 1013 10 16.0934 0 0
7:35 pm 19:35 Cloudy 60 15.5 53 11.5 77 77 N 12 19 29.93 1013 10 16.0934 0 0
7:55 pm 19:55 Mostly Cloudy 60 15.6 54 12 79 79 N 10 17 29.92 1013 10 16.0934 0 0
8:15 pm 20:15 Partly Cloudy 60 15.5 53 11.8 79 79 N 7 11 29.93 1013 10 16.0934 0 0
8:35 pm 20:35 Mostly Cloudy 60 15.5 53 11.5 77 77 N 8 13 29.94 1014 10 16.0934 0 0
8:55 pm 20:55 Partly Cloudy 59 14.9 52 11.1 78 78 N 9 15 29.94 1014 10 16.0934 0 0
9:15 pm 21:15 Partly Cloudy 57 14 53 11.5 85 85 N 7 11 29.95 1014 10 16.0934 0 0
9:35 pm 21:35 Partly Cloudy 57 14 52 11.2 83 83 N 5 7 29.95 1014 10 16.0934 0 0
9:55 pm 21:55 Partly Cloudy 57 13.7 52 11 84 84 N 5 7 29.95 1014 10 16.0934 0 0
10:15 pm 22:15 Clear 55 12.5 52 11 91 91 N 3 6 29.97 1015 10 16.0934 0 0
10:35 pm 22:35 Clear 55 13 52 11 88 88 N 5 7 29.97 1015 10 16.0934 0 0
10:55 pm 22:55 Clear 55 13 51 10.7 86 86 N 5 7 29.98 1015 10 16.0934 0 0
11:15 pm 23:15 Clear 55 12.8 51 10.6 87 87 NNW 5 7 29.98 1015 10 16.0934 0 0
11:35 pm 23:35 Clear 55 12.5 51 10.4 87 87 NNW 6 9 29.98 1015 10 16.0934 0 0
11:55 pm 23:55 Clear 55 12.5 50 10.1 85 85 NNW 6 9 29.98 1015 10 16.0934 0 0

Powered by AerisWeather